Hourly Data Report for February 05, 2020

TORONTO CITY
ONTARIO
Current Station Operator: ECCC - MSC

43°40'00.000" N
79°24'00.000" W
112.50 m
6158355
71508
XTO

Download Data

Hourly Data (February 2020)
Hourly Data Report for February 5, 2020
TIME
LST
Temp Definition
°C
Dew Point Definition
°C
Rel Hum Definition
%
Precip. Amount Definition
mm

Wind Dir Definition
10's deg

Wind Spd Definition
km/h
Visibility Definition
km
Stn Press Definition
kPa
Hmdx Definition


Wind Chill Definition


Weather Definition


00:00 -2.3 -9.7 57 0.0       100.37     LegendNANA
01:00 -3.7 -11.8 53 0.0       100.39     LegendNANA
02:00 -4.0 -11.8 55 0.0       100.42     LegendNANA
03:00 -4.1 -11.5 56 0.0       100.49     LegendNANA
04:00 -4.2 -10.7 61 0.0       100.56     LegendNANA
05:00 -4.8 -11.5 59 0.0       100.68     LegendNANA
06:00 -4.8 -11.3 61 0.0       100.73     LegendNANA
07:00 -5.8 -12.0 62 0.0       100.82     LegendNANA
08:00 -6.7 -12.7 62 0.0       100.85     LegendNANA
09:00 -6.7 -13.9 57 0.0       100.98     LegendNANA
10:00 -5.8 -13.0 56 0.0       100.88     LegendNANA
11:00 -4.9 -14.9 45 0.0       101.01     LegendNANA
12:00 -3.9 -17.5 34 0.0       100.89     LegendNANA
13:00 -2.9 -13.5 44 0.0       100.83     LegendNANA
14:00 -3.2 -14.9 40 0.3       100.62     LegendNANA
15:00 -3.4 -11.9 52 0.0       100.64     LegendNANA
16:00 -3.6 -12.1 52 0.0       100.59     LegendNANA
17:00 -3.7 -12.7 50 0.0       100.53     LegendNANA
18:00 -3.8 -12.2 52 0.0       100.42     LegendNANA
19:00 -3.7 -12.5 51 0.0       100.38     LegendNANA
20:00 -3.5 -12.2 51 0.0       100.37     LegendNANA
21:00 -3.3 -11.4 53 0.0       100.22     LegendNANA
22:00 -3.0 -11.3 53 0.0       99.97     LegendNANA
23:00 -2.8 -10.8 54 0.0       99.84     LegendNANA

Notes on Data Quality.

Legend

  • E = Estimated
  • M = Missing
  • NA = Not Available*
  • [empty] = Indicates an unobserved value
Date modified: